Preston, MN

10:18 AM CDT on August 21, 2017 (GMT -0500)
Preston

Weather History for KFKA - June, 2013

Change the Weather History Date:

Sunday, June 16, 2013

  Actual Average (KRST) Record (KRST)
Temperature  
Mean Temperature 72 °F -  
Max Temperature 81 °F 74 °F 99 °F (1913)
Min Temperature 62 °F 53 °F 41 °F (1989)
Cooling Degree Days 6    
Growing Degree Days 22 (Base 50)    
Moisture  
Dew Point 56 °F    
Average Humidity 61    
Maximum Humidity 97    
Minimum Humidity 31    
Precipitation  
Precipitation 0.00 in - - ()
Sea Level Pressure  
Sea Level Pressure 29.94 in    
Wind  
Wind Speed 8 mph (WNW)    
Max Wind Speed 16 mph    
Max Gust Speed 24 mph    
Visibility 10 miles    
Events      
Averages and records for this station are not official NWS values.
T = Trace of Precipitation, MM = Missing Value Source: NWS Daily Summary

Daily Weather History Graph

Daily Weather History Graph

Search for Another Location

Airport or City:

Trip Planner

Search our weather history database for the weather conditions in past years. The results will help you decide how hot, cold, wet, or windy it might be!

Date:

Astronomy

Jun. 16, 2013 Rise Set
Actual Time 5:26 AM CDT 8:52 PM CDT
Civil Twilight 4:50 AM CDT 9:28 PM CDT
Nautical Twilight 4:03 AM CDT 10:15 PM CDT
Astronomical Twilight 3:03 AM CDT 11:15 PM CDT
Moon 1:16 PM CDT (6/16) 12:44 AM CDT (6/16)
Length of Visible Light 16h 38m
Length of Day
15h 26m
Waxing Crescent, 50% of the Moon is Illuminated
Jun 16
Waxing Crescent
Jun 16
First Quarter
Jun 23
Full
Jun 29
Last Quarter
Jul 8
New

Hourly Weather History & Observations

Time (CDT) Temp. Dew Point Humidity Pressure Visibility Wind Dir Wind Speed Gust Speed Precip Events Conditions
12:17 AM 64.8 °F 63.7 °F 96% 29.92 in 10.0 mi SW 6.9 mph - N/A   Clear
12:38 AM 64.8 °F 63.9 °F 97% 29.92 in 10.0 mi SSW 5.8 mph - N/A   Clear
12:56 AM 64.4 °F 63.5 °F 97% 29.92 in 10.0 mi SW 4.6 mph - N/A   Clear
1:17 AM 64.4 °F 63.5 °F 97% 29.92 in 10.0 mi WSW 4.6 mph - N/A   Clear
1:37 AM 64.0 °F 63.0 °F 96% 29.92 in 10.0 mi SW 4.6 mph - N/A   Clear
1:58 AM 63.9 °F 61.9 °F 93% 29.92 in 10.0 mi West 6.9 mph - N/A   Clear
2:17 AM 63.7 °F 61.5 °F 93% 29.92 in 10.0 mi West 6.9 mph - N/A   Clear
2:37 AM 64.0 °F 62.1 °F 93% 29.92 in 10.0 mi West 8.1 mph - N/A   Clear
2:58 AM 63.7 °F 61.7 °F 93% 29.92 in 10.0 mi WSW 4.6 mph - N/A   Clear
3:17 AM 63.0 °F 60.8 °F 93% 29.92 in 10.0 mi West 6.9 mph - N/A   Clear
3:37 AM 63.7 °F 61.5 °F 93% 29.92 in 10.0 mi West 8.1 mph - N/A   Clear
3:57 AM 63.0 °F 60.8 °F 93% 29.92 in 10.0 mi West 5.8 mph - N/A   Clear
4:17 AM 63.5 °F 60.8 °F 91% 29.93 in 10.0 mi West 6.9 mph - N/A   Clear
4:37 AM 62.6 °F 60.3 °F 92% 29.93 in 10.0 mi West 6.9 mph - N/A   Clear
4:58 AM 63.5 °F 60.8 °F 91% 29.93 in 10.0 mi West 8.1 mph - N/A   Clear
5:17 AM 63.1 °F 60.4 °F 91% 29.93 in 10.0 mi West 9.2 mph - N/A   Clear
5:38 AM 62.8 °F 60.3 °F 91% 29.93 in 10.0 mi West 8.1 mph - N/A   Clear
5:57 AM 62.2 °F 59.9 °F 92% 29.94 in 10.0 mi West 8.1 mph - N/A   Clear
6:18 AM 62.6 °F 60.1 °F 91% 29.94 in 10.0 mi West 6.9 mph - N/A   Clear
6:37 AM 63.5 °F 60.4 °F 90% 29.94 in 10.0 mi West 6.9 mph - N/A   Clear
6:58 AM 64.6 °F 60.6 °F 87% 29.94 in 10.0 mi West 6.9 mph - N/A   Clear
7:18 AM 66.2 °F 61.2 °F 84% 29.94 in 10.0 mi West 6.9 mph - N/A   Clear
7:38 AM 67.3 °F 61.5 °F 82% 29.95 in 10.0 mi West 5.8 mph - N/A   Clear
7:57 AM 68.0 °F 61.5 °F 80% 29.95 in 10.0 mi West 6.9 mph - N/A   Clear
8:17 AM 69.8 °F 61.0 °F 73% 29.95 in 10.0 mi West 5.8 mph - N/A   Clear
8:38 AM 71.4 °F 60.1 °F 67% 29.95 in 10.0 mi West 5.8 mph - N/A   Clear
8:58 AM 72.7 °F 58.5 °F 61% 29.95 in 10.0 mi NW 8.1 mph - N/A   Clear
9:17 AM 73.4 °F 57.0 °F 56% 29.96 in 10.0 mi NW 9.2 mph - N/A   Clear
9:37 AM 74.3 °F 56.5 °F 54% 29.96 in 10.0 mi WNW 10.4 mph - N/A   Clear
9:58 AM 75.0 °F 55.2 °F 50% 29.96 in 10.0 mi WNW 6.9 mph - N/A   Clear
10:17 AM 75.6 °F 55.2 °F 49% 29.95 in 10.0 mi WNW 8.1 mph - N/A   Clear
10:37 AM 76.5 °F 54.7 °F 47% 29.95 in 10.0 mi WNW 11.5 mph - N/A   Clear
10:57 AM 76.8 °F 54.5 °F 46% 29.96 in 10.0 mi WNW 10.4 mph - N/A   Clear
11:18 AM 77.4 °F 54.7 °F 45% 29.96 in 10.0 mi NNW 8.1 mph - N/A   Clear
11:37 AM 78.1 °F 51.1 °F 39% 29.96 in 10.0 mi NW 8.1 mph - N/A   Clear
11:58 AM 78.3 °F 50.5 °F 38% 29.97 in 10.0 mi NW 11.5 mph - N/A   Clear
12:18 PM 78.4 °F 51.3 °F 39% 29.97 in 10.0 mi NW 10.4 mph - N/A   Clear
12:38 PM 78.8 °F 49.8 °F 36% 29.96 in 10.0 mi NNW 5.8 mph 17.3 mph N/A   Clear
12:57 PM 79.2 °F 50.2 °F 36% 29.96 in 10.0 mi NNW 10.4 mph - N/A   Clear
1:18 PM 79.2 °F 49.6 °F 35% 29.96 in 10.0 mi NNW 12.7 mph 17.3 mph N/A   Clear
1:38 PM 79.5 °F 47.5 °F 32% 29.95 in 10.0 mi North 11.5 mph - N/A   Clear
1:58 PM 80.1 °F 49.1 °F 34% 29.95 in 10.0 mi NNW 15.0 mph - N/A   Clear
2:17 PM 80.6 °F 49.1 °F 33% 29.95 in 10.0 mi NNW 10.4 mph 19.6 mph N/A   Clear
2:38 PM 80.6 °F 47.7 °F 31% 29.96 in 10.0 mi North 6.9 mph - N/A   Clear
2:58 PM 80.8 °F 48.7 °F 33% 29.96 in 10.0 mi NW 15.0 mph 19.6 mph N/A   Clear
3:17 PM 81.1 °F 49.8 °F 33% 29.96 in 10.0 mi NW 15.0 mph 18.4 mph N/A   Clear
3:38 PM 79.9 °F 48.7 °F 34% 29.96 in 10.0 mi NW 13.8 mph 18.4 mph N/A   Clear
3:58 PM 80.2 °F 49.1 °F 34% 29.95 in 10.0 mi WNW 10.4 mph 16.1 mph N/A   Clear
4:17 PM 81.5 °F 47.8 °F 31% 29.95 in 10.0 mi NW 16.1 mph 20.7 mph N/A   Clear
4:38 PM 81.1 °F 49.1 °F 33% 29.94 in 10.0 mi NW 13.8 mph 17.3 mph N/A   Clear
4:57 PM 81.5 °F 48.6 °F 32% 29.94 in 10.0 mi NW 15.0 mph 24.2 mph N/A   Scattered Clouds
5:18 PM 80.8 °F 48.4 °F 32% 29.94 in 10.0 mi NW 9.2 mph - N/A   Clear
5:37 PM 80.1 °F 49.6 °F 34% 29.94 in 10.0 mi NW 10.4 mph - N/A   Clear
5:58 PM 80.6 °F 50.7 °F 35% 29.93 in 10.0 mi NW 6.9 mph - N/A   Clear
6:18 PM 79.9 °F 50.7 °F 36% 29.92 in 10.0 mi NW 9.2 mph - N/A   Clear
6:37 PM 80.1 °F 52.0 °F 38% 29.92 in 10.0 mi NW 6.9 mph - N/A   Clear
6:57 PM 78.8 °F 52.5 °F 40% 29.92 in 10.0 mi WNW 4.6 mph - N/A   Clear
7:18 PM 78.1 °F 54.7 °F 44% 29.92 in 10.0 mi West 4.6 mph - N/A   Clear
7:37 PM 78.4 °F 54.9 °F 44% 29.91 in 10.0 mi SW 5.8 mph - N/A   Clear
7:58 PM 77.2 °F 55.8 °F 47% 29.91 in 10.0 mi SW 4.6 mph - N/A   Clear
8:18 PM 76.1 °F 54.3 °F 47% 29.91 in 10.0 mi SSW 4.6 mph - N/A   Clear
8:38 PM 75.7 °F 54.7 °F 48% 29.90 in 10.0 mi SSW 4.6 mph - N/A   Scattered Clouds
8:58 PM 73.4 °F 57.7 °F 58% 29.91 in 10.0 mi SSW 5.8 mph - N/A   Mostly Cloudy
9:17 PM 72.7 °F 56.3 °F 56% 29.91 in 10.0 mi SSW 6.9 mph - N/A   Mostly Cloudy
9:37 PM 72.3 °F 55.4 °F 55% 29.92 in 10.0 mi SW 9.2 mph - N/A   Scattered Clouds
9:57 PM 70.9 °F 55.9 °F 59% 29.94 in 10.0 mi WNW 10.4 mph - N/A   Clear
10:18 PM 70.7 °F 54.9 °F 57% 29.93 in 10.0 mi WNW 9.2 mph - N/A   Clear
10:37 PM 68.9 °F 54.9 °F 61% 29.94 in 10.0 mi WNW 6.9 mph - N/A   Clear
10:57 PM 69.1 °F 53.8 °F 58% 29.93 in 10.0 mi West 5.8 mph - N/A   Clear
11:17 PM 68.2 °F 53.8 °F 60% 29.93 in 10.0 mi WSW 4.6 mph - N/A   Clear
11:37 PM 67.1 °F 54.1 °F 63% 29.93 in 10.0 mi WSW 3.5 mph - N/A   Clear
11:57 PM 67.1 °F 54.1 °F 63% 29.93 in 10.0 mi WSW 3.5 mph - N/A   Clear